Location: North Evanston
(42.0634°N, 87.6976°W)
Time: 03:15:08
(UTC+00:00)

Transit 2A Rocket - Pass Details

Date: 20 May 2026
Orbit: 589 x 893 km, 66.7° (Epoch: 9 June)

Event Time Altitude Azimuth Distance (km) Brightness Sun altitude
Rises 07:27:23 0° 337° (NNW) 2,993 8.7 -23.8°
Reaches altitude 10° 07:30:04 10° 350° (N) 2,032 7.9 -23.5°
Maximum altitude 07:33:56 27° 48° (NE) 1,198 6.7 -23.2°
Drops below altitude 10° 07:37:36 10° 107° (ESE) 1,932 7.2 -22.9°
Sets 07:40:05 0° 120° (ESE) 2,815 7.9 -22.7°
